Regional Weather Roundup
Issued by NWS

Home | Current Version | Previous Version | Text Only | Print | Product List | Glossary Off
Versions: 1 2 3 4 5 6 7 8 9 10 11 12 13 14 15 16 17 18 19 20 21 22 23 24 25 26 27 28 29 30 31 32 33 34 35 36 37 38 39 40 41 42 43 44 45 46 47 48 49 50

000
ASUS43 KLOT 252308
RWRIL

ILLINOIS REGIONAL WEATHER ROUNDUP
NATIONAL WEATHER SERVICE CHICAGO/ROMEOVILLE IL
600 PM CDT TUE APR 25 2017

NOTE: "FAIR" INDICATES FEW OR NO CLOUDS BELOW 12,000 FEET WITH NO
SIGNIFICANT WEATHER AND/OR OBSTRUCTIONS TO VISIBILITY.

* THESE STATIONS ARE NOT UNDER NWS QUALITY CONTROL. THEY ALSO MAY NOT
  REPORT WEATHER SUCH AS PRECIPITATION OR FOG.

ILZ001-002-007-009-015-016-024-260000-
NORTHWEST ILLINOIS

CITY           SKY/WX    TMP DP  RH WIND       PRES   REMARKS
MOLINE         CLOUDY    77  43  29 SE12      29.44F
STERLING*      SUNNY     79  43  27 SE13G22   29.47F
SAVANNA*       PTSUNNY   78  42  27 S15G22    29.47R
$$

ILZ003-004-008-010-011-017-018-260000-
NORTH CENTRAL ILLINOIS

CITY           SKY/WX    TMP DP  RH WIND       PRES   REMARKS
ROCKFORD       CLOUDY    77  45  32 S17G24    29.52S
FREEPORT*      PTSUNNY   74  46  36 SE15G21   29.51F
ROCHELLE*      MOSUNNY   78  47  33 SE21      29.51S
DE KALB*       MOSUNNY   76  49  37 SE18G28   29.52S
PERU*          SUNNY     78  44  30 S21G26    29.49S
$$

ILZ005-006-012>014-019>023-260000-
NORTHEAST ILLINOIS

CITY           SKY/WX    TMP DP  RH WIND       PRES   REMARKS
CHICAGO-OHARE  CLOUDY    78  48  34 S18G25    29.52F
CHICAGO-MIDWAY PTSUNNY   79  49  34 SE15G25   29.53F
AURORA         MOSUNNY   78  50  37 SE22G29   29.51F
LANSING*       MOSUNNY   76  54  46 SE14      29.55F
JOLIET*        CLOUDY    79  51  37 SE13G18   29.53S
WAUKEGAN       CLOUDY    65  51  60 SE8       29.56F
DUPAGE AIRPORT CLOUDY    77  50  38 S21       29.52F
KANKAKEE*      CLOUDY    78  51  38 SE16G26   29.54F
WHEELING       CLOUDY    75  50  41 E12G18    29.55F
MORRIS*        CLOUDY    79  49  34 SE25      29.50S
ROMEOVILLE*    CLOUDY    76  55  47 S13       29.52F
NORTHERLY ISL    N/A     63  51  65 CALM        N/A
$$

LMZ740>746-260000-
SOUTHERN LAKE MICHIGAN

STATION/POSITION SKY/WX   TEMP    WIND        PRES    VSBY  WAVE
                          AIR SEA DIR/SP/G                  HT/PER
                          (F)     (DEG/KT/KT) (MB)    (MI)  (FT/S)
SOUTHERN BUOY              49 42   70/ 10/ 12 1002.7          1
HARRISON CRIB              62     130/ 16/ 17   N/A
BURNHAM HARBOR             63     100/  2/  8   N/A
CALUMET HARBOR             77     130/ 11/ 16 1000.2F
BURNS HARBOR               77     170/  9/ 23 1001.7F
MICHIGAN CITY              74     140/ 15/ 18   N/A
ST. JOSEPH                 64 50  160/  8/ 10 1002.4          1
$$

ILZ025>027-034>036-040-047-049-050-058-095>099-260000-
WEST-CENTRAL ILLINOIS

CITY           SKY/WX    TMP DP  RH WIND       PRES   REMARKS
QUINCY         CLOUDY    78  46  32 S13G25    29.41F
GALESBURG*     CLOUDY    76  46  34 SE12G18   29.44F
MACOMB*        CLOUDY    78  44  30 S21G28    29.46S
JACKSONVILLE*  CLOUDY    77  47  34 S20G25    29.46F
PITTSFIELD*    MOSUNNY   79  51  37 SE13G25   29.44S
$$

ILZ028>032-037-038-041>044-048-051>054-059>061-260000-
CENTRAL ILLINOIS

CITY           SKY/WX    TMP DP  RH WIND       PRES   REMARKS
PONTIAC        CLOUDY    81  47  30 S24G32    29.51S HX  80
BLOOMINGTON    MOSUNNY   76  50  40 S28G36    29.50F
DECATUR        PTSUNNY   76  54  46 SE18G35   29.50F
PEORIA         MOSUNNY   78  48  34 SE20G29   29.47S
LACON*         CLOUDY    77  47  34 S16G28    29.47R
LINCOLN*       CLOUDY    78  51  38 S17G31    29.49R
SPRINGFIELD    MOSUNNY   79  48  33 S17G26    29.48S
TAYLORVILLE    MOSUNNY   77  52  41 SE25G33   29.48F
$$

ILZ033-039-045-046-055>057-062-063-260000-
EAST-CENTRAL ILLINOIS

CITY           SKY/WX    TMP DP  RH WIND       PRES   REMARKS
CHAMPAIGN      SUNNY     77  49  37 SE23G36   29.53F
RANTOUL*       SUNNY     80  49  33 S24G32    29.54S
MATTOON        SUNNY     75  55  49 SE20G30   29.55F
PARIS*         MOSUNNY   78  55  44 SE23      29.58F
$$

ILZ079-100>102-260000-
SOUTHWEST ILLINOIS

CITY           SKY/WX    TMP DP  RH WIND       PRES   REMARKS
ALTON          PTSUNNY   75  50  41 S18G25    29.49S
BELLEVILLE     CLOUDY    78  51  39 E16G28    29.49S
CAHOKIA*       MOSUNNY   79  47  32 S18G33    29.48R
SPARTA*        MOSUNNY   76  52  43 S17G26    29.52F
$$

ILZ064>066-069>071-074>076-080>082-084>086-088>090-092>094-260000-
SOUTH-CENTRAL ILLINOIS

CITY           SKY/WX    TMP DP  RH WIND       PRES   REMARKS
CARBONDALE     SUNNY     76  52  43 S16G31    29.55F
CAIRO*         SUNNY     78  53  41 SE13      29.58F
EFFINGHAM*     SUNNY     76  56  49 SE18G28   29.57F
MT. VERNON     CLOUDY    76  53  44 S15       29.55F
CENTRALIA*     MOSUNNY   77  53  43 S20G28    29.53S
SALEM*         SUNNY     78  52  40 SE12G17   29.54S
METROPOLIS*    SUNNY     79  54  41 S10       29.60F HX  80
$$

ILZ067-068-072-073-078-083-087-091-260000-
SOUTHEAST ILLINOIS

CITY           SKY/WX    TMP DP  RH WIND       PRES   REMARKS
LAWRENCEVILLE  SUNNY     77  55  46 SE20      29.60F
FLORA*         SUNNY     78  55  45 SE23      29.57F
FAIRFIELD*     SUNNY     76  55  48 SE13      29.56F
HARRISBURG*    SUNNY     76  57  51 SE14G20   29.59F
ROBINSON*      SUNNY     75  55  48 S18       29.60F
CARMI*         SUNNY     76  58  52 SE17      29.59F
$$

ABBREVIATIONS USED IN REMARKS
   TC - TEMPERATURE IN CELSIUS
  WCI - WIND CHILL INDEX
   HX - HEAT INDEX
  VSB - VISIBILITY
$$





USA.gov is the U.S. government's official web portal to all federal, state and local government web resources and services.